RH
97 96 98 95 75 60 50 50 53 50 45 36 15 14 14 14 12 13 14 13 12 11 11 11 10 10 10 10 10 10 10 11 12 11 12 11 11 10 10 10 10 10 10
90 97 92 92 79 65 51 53 52 49 45 39 19 14 13 14 13 13 13 12 10 10 10 10 10 10 10 10 10 10 11 12 13 13 14 13 13 13 14 13 12 11 11
38 97 87 96 82 69 55 54 51 47 42 35 31 18 14 15 16 14 13 11 10 10 10 10 10 10 10 10 11 11 11 13 14 15 14 15 16 17 18 17 16 17 16
15 76 97 100 88 79 71 56 58 54 41 36 34 18 14 15 15 14 13 13 11 10 10 10 10 10 10 10 11 12 12 13 15 16 16 15 15 15 18 21 18 18 17
12 28 93 97 100 93 92 74 88 84 47 49 48 17 14 14 15 15 15 14 13 12 11 10 10 10 11 11 11 12 12 14 16 16 16 16 15 14 13 16 22 24 20
15 16 42 94 95 92 92 86 95 96 64 61 59 18 14 14 14 15 15 14 13 13 12 12 11 11 12 12 12 13 14 15 18 18 17 17 17 17 16 14 12 13 24
28 20 27 64 86 86 85 90 85 89 74 71 94 77 16 15 13 14 15 14 14 13 13 13 13 13 13 13 14 15 16 18 20 20 19 19 19 18 18 15 13 12 14
65 30 21 39 30 83 96 83 73 68 84 88 96 87 26 16 14 14 15 14 14 14 14 14 14 14 15 16 17 17 19 20 22 23 24 24 22 20 18 17 15 14 16
31 29 28 24 40 59 96 95 89 64 64 94 77 80 51 16 14 13 14 22 14 14 15 16 15 16 17 18 20 20 22 24 27 28 27 26 25 23 23 22 23 19 17
69 45 29 31 42 66 100 96 95 97 96 95 95 79 40 18 15 14 14 21 20 15 16 18 17 19 20 22 22 24 26 29 31 30 30 28 26 27 26 27 27 27 24
85 77 39 34 68 84 73 84 96 95 98 97 96 80 42 20 16 14 14 16 16 17 19 19 19 23 25 26 26 28 31 34 33 32 32 30 27 28 30 30 30 29 26
48 100 80 70 79 86 80 85 94 97 98 97 97 95 78 19 16 16 17 16 17 18 21 21 23 28 29 30 31 33 35 36 36 35 33 30 29 30 32 32 31 29 26
40 92 99 95 87 88 88 96 97 95 98 98 81 33 21 18 39 31 17 18 18 21 23 25 32 34 36 34 36 37 39 40 38 36 31 32 31 34 34 34 32 29 26
42 66 100 100 92 91 97 100 99 96 97 98 60 34 26 44 25 18 19 20 21 26 26 33 39 42 40 39 39 40 43 41 38 34 32 32 33 35 36 35 34 30 30
55 68 98 96 99 100 98 97 99 100 98 96 63 53 31 22 18 18 21 20 29 29 34 46 48 46 46 44 44 46 44 42 37 34 34 35 39 40 39 35 32 34 31
86 68 98 98 98 95 97 99 99 100 100 89 39 28 24 35 28 20 22 34 33 34 50 54 50 49 49 49 50 47 45 41 36 36 38 44 46 43 42 38 37 34 31
96 76 99 97 100 99 98 98 96 90 96 94 64 63 29 27 22 24 38 38 38 57 59 51 50 55 56 55 52 48 44 39 38 39 47 50 49 47 43 40 36 31 24
84 83 99 100 98 96 93 95 95 95 95 94 94 80 41 26 28 46 41 46 61 64 54 54 61 60 58 55 52 47 41 41 46 54 54 52 50 46 41 37 31 22 16
95 92 97 97 96 94 99 94 100 100 66 45 47 36 31 36 50 44 58 73 68 58 58 68 65 64 58 55 50 44 47 54 62 61 58 53 48 41 36 30 22 15 7
96 95 98 97 99 100 98 97 98 95 82 93 96 62 45 53 53 74 78 68 62 67 74 72 64 61 56 51 49 52 62 64 67 61 54 47 40 33 24 18 12 6 4
98 96 92 96 98 98 98 99 100 98 93 70 46 46 54 74 82 79 71 64 67 73 77 75 66 58 55 57 64 72 67 69 61 52 43 36 27 18 13 8 4 4 6
99 99 98 99 99 100 99 99 96 84 79 74 80 96 98 98 74 65 79 91 95 95 80 66 62 62 65 69 72 73 69 58 50 41 30 26 16 11 6 4 5 8 12
99 99 99 97 97 98 97 99 96 96 98 98 100 98 95 97 99 100 100 100 94 78 69 74 80 79 76 76 74 64 52 44 35 25 20 12 9 5 4 6 9 12 18
99 95 98 97 99 98 100 98 99 98 100 99 99 99 100 100 100 100 98 99 87 90 97 93 88 84 83 70 57 47 37 23 18 11 10 7 4 5 7 10 13 16 20
100 100 100 100 99 98 99 99 99 100 100 100 100 99 98 99 100 100 100 100 99 97 95 95 88 76 63 48 36 20 14 12 9 9 4 4 6 11 15 20 26 31 32
100 100 100 96 96 100 99 98 100 100 100 100 100 100 100 100 100 100 100 100 93 98 95 82 70 55 40 20 11 11 9 10 7 3 5 7 9 11 15 21 26 28 28
Wind_Speed
71 68 66 62 57 52 49 47 43 41 38 35 34 32 32 29 27 25 24 23 23 23 22 22 21 20 20 20 21 23 24 25 27 27 27 28 30 31 32 35 36 38 38
74 73 71 64 59 54 50 49 46 42 39 38 37 36 34 32 29 27 25 25 25 25 24 24 23 22 22 22 23 24 26 27 27 29 30 31 33 33 33 35 38 39 41
70 67 67 67 60 55 51 50 47 43 42 41 40 37 34 31 31 30 29 28 27 27 27 26 25 25 25 25 26 27 28 29 29 30 31 32 33 34 37 38 40 42 43
68 68 63 70 65 57 53 52 49 46 44 42 39 37 36 37 36 32 30 29 30 29 29 28 27 28 28 28 29 30 31 33 33 33 33 34 35 36 36 40 43 45 47
57 64 64 61 62 59 53 51 51 48 45 43 41 38 39 38 36 33 33 33 32 31 30 30 30 30 31 31 32 33 35 36 36 37 38 38 39 40 41 41 43 46 49
52 57 64 67 63 65 58 53 54 53 48 46 43 41 41 39 36 36 36 35 34 33 33 33 33 34 34 34 35 36 38 39 39 40 41 41 43 45 45 47 49 50 52
44 46 58 66 57 62 61 59 56 52 50 50 46 42 42 39 38 39 38 37 37 36 35 36 36 36 37 37 38 39 40 42 42 43 44 45 47 49 51 52 55 56 58
46 43 49 58 57 54 58 58 54 55 53 51 46 42 43 41 41 41 41 40 39 37 37 37 37 38 39 40 41 42 43 44 45 46 48 50 51 54 56 58 60 60 63
48 45 46 53 48 50 50 53 53 53 52 55 46 45 43 43 44 43 41 41 41 39 39 39 40 40 42 43 43 45 46 47 49 50 52 54 56 59 61 64 66 68 69
52 50 50 50 46 49 44 47 56 54 61 57 49 45 45 45 46 42 41 39 44 40 40 41 41 42 43 44 46 47 48 50 52 54 56 58 60 63 66 68 71 73 75
48 51 58 55 49 44 44 33 64 59 51 52 46 44 45 45 44 41 41 41 42 42 41 42 43 43 44 46 47 49 51 53 55 58 59 62 64 67 69 72 74 76 77
50 46 50 62 48 39 38 37 37 44 49 41 49 40 43 45 41 40 42 42 42 42 43 43 44 45 45 47 49 51 53 56 58 60 63 66 68 71 73 76 77 78 80
49 45 48 59 49 42 40 44 47 44 47 39 37 41 43 40 40 44 42 42 43 44 44 44 44 45 47 49 51 53 57 59 61 63 66 69 72 74 77 79 79 81 85
45 48 57 69 59 54 52 51 45 47 44 43 42 44 43 46 45 41 43 43 44 45 45 45 45 47 49 51 53 57 59 61 64 67 70 73 76 77 79 79 82 86 88
44 43 50 59 64 60 57 55 48 49 45 43 42 46 49 46 41 41 43 44 45 45 45 45 46 48 51 53 56 58 61 64 67 70 72 76 79 80 81 83 86 89 92
45 50 48 49 56 65 63 62 55 57 53 47 49 47 43 42 45 44 44 45 44 44 46 46 48 50 53 55 57 60 63 66 70 72 76 79 80 81 83 87 89 92 94
45 50 56 62 59 64 69 61 59 56 54 46 49 46 44 45 45 44 45 44 43 44 46 48 51 53 54 56 59 62 65 69 72 76 79 80 81 82 85 88 90 92 95
48 53 46 51 64 59 60 61 60 58 50 47 47 45 49 46 44 43 42 42 43 45 47 50 52 53 55 58 61 64 68 71 76 79 79 80 82 85 87 90 91 93 99
38 49 56 53 66 67 60 59 54 48 44 45 43 41 43 44 42 39 41 43 44 47 49 50 51 54 57 59 63 66 70 74 77 77 79 81 83 87 90 93 94 98 99
25 32 31 46 48 54 55 54 53 50 48 46 42 46 42 40 39 40 41 42 45 46 47 49 53 56 58 61 65 69 73 75 76 77 80 83 86 89 92 96 99 96 82
25 28 26 26 29 37 38 35 38 36 35 38 42 38 35 36 38 39 39 41 44 46 49 52 54 57 60 64 68 71 74 75 74 76 79 84 88 92 96 99 95 80 67
21 28 31 29 27 29 32 32 34 34 35 35 34 35 35 35 35 37 40 43 45 47 49 52 55 59 64 67 70 72 72 73 76 79 84 88 92 96 98 89 75 64 58
27 24 28 31 30 32 33 32 30 30 32 34 32 31 32 33 36 38 40 42 45 48 50 54 59 63 66 68 68 68 70 74 78 83 88 92 97 96 85 73 64 60 55
29 26 28 28 22 23 23 26 30 34 31 30 32 34 34 35 36 37 42 44 47 49 54 58 60 63 64 63 65 69 73 77 82 86 93 96 90 79 70 64 61 59 54
29 29 26 29 31 29 30 31 29 27 29 32 34 37 36 35 37 41 44 45 49 53 55 57 59 60 61 63 66 70 75 80 86 92 91 83 73 68 65 62 59 55 52
25 27 27 29 30 33 36 34 31 31 34 36 37 36 35 37 41 42 44 48 52 53 55 56 57 59 61 64 69 75 81 88 91 85 77 71 67 63 58 55 52 50 48
Wind_Direction
212 210 215 216 220 218 219 221 222 224 229 232 231 231 234 239 241 242 244 247 248 250 253 258 264 273 280 287 292 295 298 301 304 306 309 312 315 319 321 321 323 323 323
224 207 212 213 214 219 219 222 223 224 227 230 232 233 236 240 242 242 243 248 249 250 252 258 265 272 280 283 287 290 292 295 298 302 307 310 312 314 314 314 315 316 316
230 219 211 215 212 217 220 222 224 225 227 229 233 235 238 240 239 240 242 246 252 252 254 258 265 272 278 283 287 289 291 292 294 296 299 301 304 305 307 308 309 309 309
227 227 215 206 210 214 219 222 223 226 228 230 235 234 233 235 239 243 246 248 251 255 258 262 268 274 279 283 286 289 291 292 292 294 296 298 300 300 301 303 305 306 307
232 227 224 205 205 210 217 222 223 225 228 227 233 233 234 237 241 243 245 249 253 257 261 264 269 274 278 282 285 287 289 290 292 294 295 297 299 301 301 301 302 304 304
229 227 229 235 203 207 212 216 223 222 224 226 227 234 234 237 240 242 245 250 255 258 263 267 270 274 277 280 283 286 287 289 291 293 294 297 298 298 300 302 304 304 304
216 223 226 237 244 205 210 214 219 223 223 227 225 228 235 236 239 243 247 250 254 258 263 266 270 274 277 279 282 285 287 289 291 292 295 297 298 299 300 302 303 303 302
210 212 222 231 233 243 222 211 217 219 222 224 225 224 235 236 237 242 248 249 254 259 263 267 270 274 277 280 283 285 287 289 291 294 296 298 299 300 301 302 301 302 301
204 205 211 219 229 238 239 239 215 218 219 223 223 224 229 236 237 241 243 252 257 259 262 267 270 273 276 280 283 286 288 290 292 295 296 298 300 302 303 303 304 303 301
211 206 208 214 219 223 234 239 214 221 224 226 220 222 226 234 237 242 246 251 256 260 263 266 270 273 277 281 284 287 289 290 293 295 297 299 301 303 304 306 307 306 305
213 212 207 202 209 223 243 227 222 220 224 230 218 225 231 235 239 243 247 252 256 260 263 267 271 274 278 282 285 287 289 291 293 296 298 301 302 304 306 308 307 306 305
212 213 210 200 200 216 217 215 211 223 228 228 220 222 233 238 241 246 251 254 258 262 264 267 271 275 279 282 285 287 290 292 294 297 300 301 303 305 307 306 306 306 306
217 205 206 198 194 206 206 215 214 221 232 219 223 234 238 239 244 247 251 255 259 262 265 268 272 276 279 283 285 288 290 293 296 299 301 303 304 306 307 306 306 307 306
214 210 203 198 200 204 213 218 217 224 219 226 231 236 239 240 244 248 252 256 261 263 265 269 273 277 280 283 287 289 292 295 298 300 302 303 304 306 305 306 307 307 308
215 211 209 208 207 205 210 217 214 221 219 225 231 235 240 243 244 249 255 258 260 262 266 269 274 278 281 285 288 291 294 297 300 301 303 304 306 306 306 307 307 308 308
211 205 206 205 209 210 209 211 217 224 228 229 233 236 241 245 247 249 253 256 258 262 266 271 275 279 283 286 289 293 296 299 300 302 303 305 305 306 307 309 308 308 310
210 205 210 206 207 211 211 212 215 223 223 223 230 232 239 242 245 248 251 255 259 263 269 273 277 281 285 289 292 295 298 300 301 301 304 305 306 307 308 308 309 311 314
210 214 206 211 212 207 209 211 219 224 225 231 234 231 237 243 245 247 251 256 261 266 270 275 279 284 288 291 295 297 299 300 301 304 305 306 307 307 307 307 311 315 315
212 215 211 208 209 208 210 216 219 218 220 224 226 232 234 239 244 248 252 257 263 269 273 278 283 287 291 294 297 298 299 300 304 306 307 306 307 306 308 312 314 314 316
207 201 203 201 199 208 213 223 226 218 215 224 228 234 236 239 243 249 255 262 267 271 277 283 287 290 293 296 297 297 300 304 305 306 306 307 307 310 313 315 315 315 314
218 209 201 199 198 199 203 207 210 215 223 228 231 232 235 241 247 254 263 268 273 278 281 285 289 293 295 297 299 301 304 304 305 305 305 307 311 315 315 315 315 313 310
215 214 209 202 201 207 205 210 217 219 223 225 228 233 240 251 260 265 269 272 276 281 285 288 292 294 297 299 302 303 304 304 305 306 308 311 314 315 314 313 310 309 309
209 220 220 219 217 209 203 201 207 212 218 225 233 243 252 261 266 271 275 279 281 285 288 291 294 297 300 302 303 303 305 306 308 310 313 314 314 314 312 309 307 308 305
214 215 227 222 215 220 216 216 216 221 226 236 246 254 260 267 273 275 276 280 283 286 289 293 297 300 302 303 304 307 308 310 313 314 315 315 314 310 308 307 304 303 301
218 220 220 217 219 220 221 223 229 236 243 249 254 261 265 269 272 274 277 280 284 290 295 298 301 302 304 306 308 310 311 313 314 315 314 312 310 308 306 303 301 300 301
212 205 216 222 225 231 235 239 239 242 247 253 257 262 269 272 272 276 281 286 293 296 298 301 301 304 307 309 311 312 314 315 314 314 312 311 309 305 303 302 301 301 301